Location: Olsztyn
(53.7767°N, 20.4765°E)
Time: 13:21:01
(UTC+02:00)

SR - All Passes

Search period start: 19 July 2024 00:00
Search period end: 29 July 2024 00:00
Orbit: 581 x 856 km, 66.7° (Epoch: 18 July)

Date Brightness Start Highest point End Pass type
(mag) Time Alt. Az. Time Alt. Az. Time Alt. Az.
19 Jul - 04:14:12 10° S 04:18:28 41° ESE 04:22:33 10° NE daylight
19 Jul - 05:56:06 10° WSW 06:00:19 40° NW 06:04:23 10° NNE daylight
19 Jul - 07:40:22 10° NW 07:43:13 17° NNW 07:46:02 10° NNE daylight
19 Jul - 09:23:57 10° NNW 09:26:39 16° NNE 09:29:21 10° NE daylight
19 Jul - 11:05:42 10° NNW 11:09:38 36° NE 11:13:39 10° ESE daylight
19 Jul - 12:47:28 10° NW 12:51:34 47° WSW 12:55:47 10° SSE daylight
20 Jul - 03:22:45 10° SSE 03:26:14 22° ESE 03:29:35 10° ENE visible
20 Jul - 05:03:11 10° SW 05:07:40 69° NW 05:11:58 10° NE daylight
20 Jul - 06:46:49 10° WNW 06:50:12 21° NNW 06:53:31 10° NNE daylight
20 Jul - 08:31:05 10° NNW 08:33:32 15° N 08:35:59 10° NE daylight
20 Jul - 10:13:17 10° NNW 10:16:47 24° NNE 10:20:20 10° E daylight
20 Jul - 11:54:52 10° NW 11:59:09 90° NE 12:03:33 10° SE daylight
20 Jul - 13:37:49 10° WNW 13:40:22 16° WSW 13:42:59 10° SSW daylight
21 Jul - 02:32:54 10° ESE 02:34:08 11° ESE 02:35:22 10° E visible
21 Jul - 04:10:42 10° SSW 04:15:10 65° SE 04:19:27 10° NE daylight
21 Jul - 05:53:24 10° W 05:57:18 30° NNW 06:01:06 10° NNE daylight
21 Jul - 07:37:50 10° NW 07:40:25 15° N 07:42:58 10° NNE daylight
21 Jul - 09:20:48 10° NNW 09:23:49 18° NNE 09:26:51 10° ENE daylight
21 Jul - 11:02:24 10° NW 11:06:34 50° NE 11:10:49 10° ESE daylight
21 Jul - 12:44:28 10° WNW 12:48:13 30° WSW 12:52:04 10° S daylight
22 Jul - 03:18:44 10° S 03:22:49 34° ESE 03:26:43 10° NE visible
22 Jul - 05:00:14 10° WSW 05:04:32 47° NW 05:08:41 10° NE daylight
22 Jul - 06:44:19 10° WNW 06:47:19 18° NNW 06:50:17 10° NNE daylight
22 Jul - 08:28:09 10° NNW 08:30:45 15° N 08:33:20 10° NE daylight
22 Jul - 10:10:00 10° NNW 10:13:49 31° NNE 10:17:43 10° E daylight
22 Jul - 11:51:41 10° NW 11:55:52 58° SW 12:00:12 10° SSE daylight
23 Jul - 02:27:35 10° SSE 02:30:36 18° ESE 02:33:32 10° ENE visible
23 Jul - 04:07:25 10° SW 04:11:55 83° NW 04:16:13 10° NE daylight
23 Jul - 05:50:47 10° W 05:54:19 23° NNW 05:57:47 10° NNE daylight
23 Jul - 07:35:09 10° NW 07:37:36 15° N 07:40:02 10° NE daylight
23 Jul - 09:17:33 10° NNW 09:20:55 22° NNE 09:24:19 10° ENE daylight
23 Jul - 10:59:07 10° NW 11:03:24 75° NE 11:07:47 10° SE daylight
23 Jul - 12:41:40 10° WNW 12:44:45 19° WSW 12:47:54 10° SSW daylight
24 Jul - 03:15:03 10° SSW 03:19:26 53° SE 03:23:38 10° NE visible
24 Jul - 04:57:24 10° W 05:01:26 34° NW 05:05:21 10° NNE daylight
24 Jul - 06:41:46 10° NW 06:44:27 16° N 06:47:07 10° NNE daylight
24 Jul - 08:25:01 10° NNW 08:27:53 17° NNE 08:30:45 10° ENE daylight
24 Jul - 10:06:39 10° NNW 10:10:44 43° NE 10:14:55 10° ESE daylight
24 Jul - 11:48:34 10° NW 11:52:30 37° WSW 11:56:35 10° S daylight
25 Jul - 02:23:17 10° S 02:27:06 27° ESE 02:30:46 10° ENE visible
25 Jul - 04:04:19 10° WSW 04:08:41 55° NW 04:12:55 10° NE daylight
25 Jul - 05:48:13 10° WNW 05:51:22 19° NNW 05:54:28 10° NNE daylight
25 Jul - 07:32:14 10° NNW 07:34:46 15° N 07:37:16 10° NE daylight
25 Jul - 09:14:14 10° NNW 09:17:55 28° NNE 09:21:40 10° E daylight
25 Jul - 10:55:51 10° NW 11:00:06 72° SW 11:04:31 10° SSE daylight
25 Jul - 12:39:30 10° W 12:41:11 12° WSW 12:42:54 10° SW daylight
26 Jul - 01:32:32 10° SE 01:34:55 14° ESE 01:37:16 10° ENE visible
26 Jul - 03:11:37 10° SW 03:16:06 82° SE 03:20:24 10° NE visible
26 Jul - 04:54:42 10° W 04:58:22 26° NNW 05:01:59 10° NNE daylight
26 Jul - 06:39:06 10° NW 06:41:36 15° N 06:44:04 10° NNE daylight
26 Jul - 08:21:45 10° NNW 08:24:57 20° NNE 08:28:11 10° ENE daylight
26 Jul - 10:03:18 10° NW 10:07:33 62° NE 10:11:55 10° SE daylight
26 Jul - 11:45:35 10° WNW 11:49:02 24° WSW 11:52:36 10° SSW daylight
27 Jul - 02:19:25 10° SSW 02:23:39 43° ESE 02:27:43 10° NE visible
27 Jul - 04:01:23 10° WSW 04:05:31 39° NW 04:09:33 10° NNE visible
27 Jul - 05:45:39 10° NW 05:48:26 17° NNW 05:51:13 10° NNE daylight
27 Jul - 07:29:09 10° NNW 07:31:52 16° NNE 07:34:36 10° NE daylight
27 Jul - 09:10:51 10° NNW 09:14:49 37° NE 09:18:54 10° ESE daylight
27 Jul - 10:52:38 10° NW 10:56:44 45° WSW 11:00:59 10° SSE daylight
28 Jul - 01:27:52 10° SSE 01:31:21 22° ESE 01:34:43 10° ENE visible
28 Jul - 03:08:23 10° SW 03:12:48 66° NW 03:17:04 10° NE visible
28 Jul - 04:52:03 10° WNW 04:55:21 21° NNW 04:58:37 10° NNE daylight
28 Jul - 06:36:15 10° NNW 06:38:42 15° N 06:41:10 10° NE daylight
28 Jul - 08:18:23 10° NNW 08:21:57 25° NNE 08:25:33 10° E daylight
28 Jul - 09:59:58 10° NW 10:04:15 87° SW 10:08:42 10° SE daylight
28 Jul - 11:42:58 10° WNW 11:45:29 15° WSW 11:48:02 10° SW daylight
